POLYITAN-2-SAU (42732 NORAD) Tracking and Keplerian Element Data

This shows tracking and keplerian element data for the satellite.

Feedback or suggestion? Click here.




ElementValue
Catalog42732
NamePOLYITAN-2-SAU
Epoch Orbit9728
Epoch Day35.8494826
Epoch Year2019
RAAN222.7661
Inclination51.6102
Eccentricity0.0006965
Argument of Perigee282.1368
Mean Anonmoly217.9093
Mean Motion16.38912453
Decay Rate0.08466551
L11 42732U 98067MM 19035.84948260 .08466551 12392-4 69401-3 0 9996
L22 42732 51.6102 222.7661 0006965 282.1368 217.9093 16.38912453 97286

Live tracking and technical data element details for POLYITAN-2-SAU (NORAD 42732). POLYITAN-2-SAU can be tracked NOW for your location showing map with azimuth and elevation plus other details from your city location.

Track the satellite on the map from your city or location and see movement details for azimuth, elevation, latitude, longitude, range, height, and movement on the map or in text.







IsCatalogInMostPopularTable: catalog: 42732, numindb: 202
Update: records affected: 1



GetName: 42732 POLYITAN-2-SAU

Hit Count: updated at: Thu, 21 Feb 2019 12:25:03 GMT